Flag for Norway Weather past 2 weeks in Drøbak, Norway

Now
48 °F

Overcast.


Feels Like: 45 °F
Forecast: 37 / 62 °F
Wind: 7 mph from Southeast

Location: Oslo / Fornebu


UV Index: 0 (Low)

Visibility: N/A


Pressure: 30.33 "Hg

Humidity: 71%

Dew point: 39 °F

Location of DrøbakLocation

Historic Weather in Drøbak

°F

Drøbak temperature yesterday

Maximum temperature yesterday: 59 °F (at 1:20 PM)
Minimum temperature yesterday: 46 °F (at 12:20 AM)
Average temperature yesterday: 52 °F

Past Weeks' High & Low Weather Summary

 TemperatureHumidityPressure
High59 °F (Apr 23, 1:20 PM)100% (Apr 9, 9:50 PM)30.36 "Hg (Apr 9, 9:50 PM)
Low37 °F (Apr 14, 1:20 PM)49% (Apr 18, 3:20 AM)29.12 "Hg (Apr 12, 7:20 PM)
Average45 °F81%29.94 "Hg
* Reported Apr 9 7:20 PM — Apr 24 7:50 PM, Drøbak, Weather by CustomWeather, © 2014

Note: Actual official high and low records may vary slightly from our data, if they occured in-between our weather recording intervals... More about our weather records

Advertising

Historic Weather Conditions — Data for Previous 24 hours

 ConditionsComfort  
Time TempWeatherWind HumidityBarometerVisibility
7:50 PM
Apr 24
48 °FPartly sunny.8 mph71%30.33 "HgN/A
7:20 PM50 °FOvercast.9 mph71%30.33 "HgN/A
6:50 PM48 °FPartly sunny.10 mph71%30.33 "HgN/A
6:20 PM50 °FPartly sunny.10 mph67%30.33 "HgN/A
5:50 PM50 °FPartly sunny.13 mph67%30.33 "HgN/A
5:20 PM52 °FBroken clouds.14 mph62%30.33 "HgN/A
4:50 PM52 °FPartly sunny.14 mph58%30.33 "HgN/A
4:20 PM52 °FPartly sunny.14 mph58%30.33 "HgN/A
3:50 PM50 °FPartly sunny.18 mph62%30.33 "HgN/A
3:20 PM52 °FPartly sunny.21 mph54%30.33 "HgN/A
2:50 PM52 °FOvercast.21 mph54%30.33 "HgN/A
2:20 PM52 °FOvercast.16 mph62%30.33 "HgN/A
1:50 PM50 °FOvercast.21 mph67%30.33 "HgN/A
1:20 PM50 °FPartly sunny.22 mph67%30.33 "HgN/A
12:50 PM50 °FPartly sunny.21 mph67%30.33 "HgN/A
12:20 PM50 °FOvercast.22 mph71%30.36 "HgN/A
11:50 AM50 °FOvercast.20 mph76%30.36 "HgN/A
11:20 AM50 °FOvercast.20 mph76%30.36 "HgN/A
10:50 AM50 °FPartly sunny.24 mph71%30.36 "HgN/A
10:20 AM50 °FBroken clouds.28 mph71%30.36 "HgN/A
9:50 AM50 °FBroken clouds.28 mph71%30.36 "HgN/A
9:20 AM50 °FPartly sunny.25 mph71%30.33 "HgN/A
8:50 AM50 °FPartly sunny.26 mph76%30.33 "HgN/A
8:20 AM54 °FPartly sunny.26 mph67%30.33 "HgN/A
7:50 AM50 °FPartly sunny.23 mph76%30.33 "HgN/A
7:20 AM52 °FPartly sunny.26 mph72%30.33 "HgN/A
6:50 AM52 °FPartly sunny.N/A67%30.33 "HgN/A
6:20 AM54 °FPartly cloudy.26 mph67%30.30 "HgN/A
5:50 AM54 °FPassing clouds.28 mph67%30.30 "HgN/A
5:20 AM54 °FPartly cloudy.30 mph67%30.30 "HgN/A
4:50 AM52 °FPassing clouds.25 mph72%30.30 "HgN/A
4:20 AM50 °FPassing clouds.29 mph71%30.30 "HgN/A
3:50 AM50 °FPassing clouds.29 mph71%30.30 "HgN/A
3:20 AM50 °FPassing clouds.30 mph71%30.30 "HgN/A
2:50 AM50 °FPassing clouds.30 mph67%30.30 "HgN/A
2:20 AM52 °FPassing clouds.28 mph62%30.30 "HgN/A
1:50 AM52 °FPassing clouds.28 mph62%30.30 "HgN/A
1:20 AM52 °FPassing clouds.25 mph58%30.30 "HgN/A
12:50 AM52 °FOvercast.28 mph62%30.30 "HgN/A
12:20 AM52 °FPassing clouds.29 mph62%30.30 "HgN/A
11:50 PM
Apr 23
54 °FOvercast.31 mph63%30.30 "HgN/A
11:20 PM54 °FOvercast.33 mph63%30.30 "HgN/A
10:50 PM52 °FPassing clouds.37 mph67%30.30 "HgN/A
10:20 PM50 °FPassing clouds.36 mph71%30.30 "HgN/A
9:50 PM50 °FPartly sunny.33 mph71%30.30 "HgN/A
9:20 PM50 °FPartly sunny.30 mph76%30.27 "HgN/A
Weather by CustomWeather, © 2014

See weather overview